Regional Weather Roundup
Issued by NWS

Home | Current Version | Previous Version | Graphics & Text | Print | Product List | Glossary Off
Versions: 1 2 3 4 5 6 7 8 9 10 11 12 13 14 15 16 17 18 19 20 21 22 23 24 25 26 27 28 29 30 31 32 33 34 35 36 37 38 39 40 41 42 43 44 45 46 47 48 49 50

807
ASUS44 KJAN 292210
RWRMS

MISSISSIPPI HOURLY WEATHER ROUNDUP
NATIONAL WEATHER SERVICE JACKSON MS
500 PM CDT SUN MAR 29 2015

NOTE: "FAIR: INDICATES FEW OR NO CLOUDS BELOW 12,000 FEET WITH NO
SIGNIFICANT WEATHER AND/OR OBSTRUCTIONS TO VISIBILITY.

MSZ001>002-007>008-010>013-018>021-025>028-034>036-292300-
NORTHWEST MISSISSIPPI

CITY           SKY/WX    TMP DP  RH WIND       PRES   REMARKS
CLARKSDALE     FAIR      72  54  53 S15G21    30.05F
CLEVELAND      FAIR      75  57  53 S21G28    30.04F
GREENWOOD      SUNNY     76  48  37 S13       30.07F
GREENVILLE     SUNNY     76  55  48 S22       30.03F
OLIVE BRANCH   SUNNY     68  48  49 S15G23    30.04F
OXFORD         FAIR      68  46  45 S10G20    30.08F
TUNICA         CLEAR     70  54  56 S18G24    30.05F
$$

MSZ003>006-009-014>017-022>024-029>033-037>039-292300-
NORTHEAST MISSISSIPPI

CITY           SKY/WX    TMP DP  RH WIND       PRES   REMARKS
COLUMBUS AFB   SUNNY     69  43  39 S14G21    30.13F
CORINTH        FAIR      64  41  42 S15       30.09F
GOLDN TRIANGLE SUNNY     70  46  43 SE15G21   30.14F
STARKVILLE     FAIR      72  45  37 S12       30.12F
TUPELO         SUNNY     66  43  43 S15       30.12F
$$

MSZ040-058-292300-
CENTRAL MISSISSIPPI

CITY           SKY/WX    TMP DP  RH WIND       PRES   REMARKS
JACKSON INTL   SUNNY     78  52  40 S15       30.10F
JACKSON HAWKNS SUNNY     79  52  38 S18G24    30.10F
MERIDIAN KEY   SUNNY     73  47  39 S14       30.16F
MERIDIAN NAS   MOSUNNY   74  47  37 SE10      30.15F
RAYMOND        FAIR      81  75  83 SW14G23   30.09F
VICKSBURG      SUNNY     78  56  46 SW15G26   30.09F
$$

MSZ059>079-292300-
SOUTH MISSISSIPPI

CITY           SKY/WX    TMP DP  RH WIND       PRES   REMARKS
BROOKHAVEN     FAIR      77  57  50 S12G17    30.15F
HATTIESBURG    SUNNY     73  55  53 S15G21    30.19F
MCCOMB         MOSUNNY   76  57  51 S12G20    30.16F
NATCHEZ        PTSUNNY   79  57  47 S20G26    30.12S
PINE BELT      MOSUNNY   73 N/A N/A S13       30.19F
$$

MSZ080>082-292300-
COASTAL MISSISSIPPI

CITY           SKY/WX    TMP DP  RH WIND       PRES   REMARKS
BAY ST LOUIS   PTSUNNY   70  55  60 SE12      30.22F
BILOXI         CLOUDY    67  59  73 SE9       30.23F
PASCAGOULA     PTSUNNY   67  57  70 SE14G22   30.25F
GULFPORT       CLOUDY    68  57  68 SE13      30.23F
$$



USA.gov is the U.S. government's official web portal to all federal, state and local government web resources and services.